When you browse on this site, cookies collect data to enhance your experience and personalize the content and advertising you see.
Visit our Privacy Policy to learn more. By continuing to use the site, you agree to this use of cookies and data.
  • In Lithuania
  • List of Countries
  • For 7 days
  • Water Temperature
  • Weather Map
  • Weather Widgets
  • user-avatar
    Login

    Hourly Weather Dipayal

    Today, 14 November, Thursday

    Time Temperature Precipitation Wind Pressure Humidity
    00:00 +20°C° 0 mm 1 mps 707 mmHg 61%
    01:00 +20°C° 0 mm 1 mps 707 mmHg 60%
    02:00 +19°C° 0 mm 1 mps 706 mmHg 59%
    03:00 +20°C° 0 mm 1 mps 706 mmHg 56%
    04:00 +20°C° 0 mm 1 mps 706 mmHg 53%
    05:00 +20°C° 0 mm 1 mps 706 mmHg 50%
    06:00 +21°C° 0 mm 1 mps 707 mmHg 50%
    07:00 +20°C° 0 mm 0 mps 708 mmHg 50%
    08:00 +22°C° 0 mm 0 mps 708 mmHg 50%
    09:00 +25°C° 0 mm 1 mps 708 mmHg 47%
    10:00 +26°C° 0 mm 1 mps 708 mmHg 44%
    11:00 +28°C° 0 mm 1 mps 709 mmHg 41%
    12:00 +28°C° 0 mm 1 mps 708 mmHg 42%
    13:00 +28°C° 0 mm 1 mps 707 mmHg 43%
    14:00 +28°C° 0 mm 1 mps 707 mmHg 44%
    15:00 +26°C° 0 mm 1 mps 706 mmHg 55%
    16:00 +22°C° 0 mm 0 mps 706 mmHg 67%
    17:00 +19°C° 0 mm 0 mps 706 mmHg 78%
    18:00 +19°C° 0 mm 0 mps 706 mmHg 77%
    19:00 +19°C° 0 mm 0 mps 707 mmHg 76%
    20:00 +21°C° 0 mm 1 mps 708 mmHg 75%
    21:00 +21°C° 0 mm 1 mps 707 mmHg 71%
    22:00 +21°C° 0 mm 1 mps 707 mmHg 67%
    23:00 +21°C° 0 mm 1 mps 707 mmHg 63%

    Tomorrow, 15 November, Friday

    Time Temperature Precipitation Wind Pressure Humidity
    00:00 +21°C° 0 mm 1 mps 707 mmHg 62%
    01:00 +20°C° 0 mm 1 mps 706 mmHg 61%
    02:00 +20°C° 0 mm 1 mps 706 mmHg 60%
    03:00 +20°C° 0 mm 1 mps 706 mmHg 59%
    04:00 +19°C° 0 mm 1 mps 706 mmHg 58%
    05:00 +19°C° 0 mm 1 mps 706 mmHg 57%
    06:00 +21°C° 0 mm 1 mps 706 mmHg 54%
    07:00 +23°C° 0 mm 1 mps 707 mmHg 51%
    08:00 +22°C° 0 mm 0 mps 707 mmHg 49%
    09:00 +26°C° 0 mm 1 mps 707 mmHg 45%
    10:00 +28°C° 0 mm 1 mps 707 mmHg 42%
    11:00 +30°C° 0 mm 1 mps 707 mmHg 38%
    12:00 +30°C° 0 mm 1 mps 707 mmHg 40%
    13:00 +30°C° 0 mm 1 mps 706 mmHg 41%
    14:00 +30°C° 0 mm 1 mps 705 mmHg 43%
    15:00 +27°C° 0 mm 1 mps 705 mmHg 56%
    16:00 +24°C° 0 mm 1 mps 705 mmHg 68%
    17:00 +20°C° 0 mm 0 mps 704 mmHg 81%
    18:00 +21°C° 0 mm 1 mps 705 mmHg 80%
    19:00 +21°C° 0 mm 1 mps 705 mmHg 80%
    20:00 +20°C° 0 mm 1 mps 706 mmHg 79%
    21:00 +20°C° 0 mm 1 mps 706 mmHg 76%
    22:00 +20°C° 0 mm 1 mps 705 mmHg 73%
    23:00 +19°C° 0 mm 1 mps 705 mmHg 70%

    Day after tomorrow, 16 November, Saturday

    Time Temperature Precipitation Wind Pressure Humidity
    00:00 +19°C° 0 mm 1 mps 705 mmHg 68%
    01:00 +19°C° 0 mm 1 mps 704 mmHg 66%
    02:00 +19°C° 0 mm 1 mps 704 mmHg 63%
    03:00 +19°C° 0 mm 1 mps 704 mmHg 61%
    04:00 +18°C° 0 mm 1 mps 704 mmHg 58%
    05:00 +18°C° 0 mm 1 mps 704 mmHg 56%
    06:00 +20°C° 0 mm 1 mps 705 mmHg 54%
    07:00 +22°C° 0 mm 1 mps 705 mmHg 51%
    08:00 +22°C° 0 mm 0 mps 706 mmHg 49%
    09:00 +24°C° 0 mm 0 mps 706 mmHg 46%
    10:00 +28°C° 0 mm 1 mps 706 mmHg 42%
    11:00 +30°C° 0 mm 1 mps 706 mmHg 38%
    12:00 +30°C° 0 mm 1 mps 705 mmHg 39%
    13:00 +30°C° 0 mm 1 mps 705 mmHg 40%
    14:00 +30°C° 0 mm 1 mps 704 mmHg 41%
    15:00 +27°C° 0 mm 1 mps 704 mmHg 54%
    16:00 +24°C° 0 mm 1 mps 704 mmHg 66%
    17:00 +21°C° 0 mm 1 mps 704 mmHg 79%
    18:00 +21°C° 0.1 mm 1 mps 704 mmHg 78%
    19:00 +20°C° 0.1 mm 1 mps 705 mmHg 77%
    20:00 +20°C° 0.1 mm 1 mps 705 mmHg 76%
    21:00 +20°C° 0 mm 1 mps 705 mmHg 73%
    22:00 +19°C° 0 mm 1 mps 705 mmHg 71%
    23:00 +19°C° 0 mm 1 mps 705 mmHg 69%

    17 November, Sunday

    Time Temperature Precipitation Wind Pressure Humidity
    00:00 +19°C° 0 mm 1 mps 705 mmHg 66%
    01:00 +19°C° 0 mm 1 mps 705 mmHg 64%
    02:00 +18°C° 0 mm 1 mps 704 mmHg 62%
    03:00 +17°C° 0 mm 2 mps 704 mmHg 59%
    04:00 +17°C° 0 mm 2 mps 704 mmHg 55%
    05:00 +17°C° 0 mm 2 mps 704 mmHg 52%
    06:00 +19°C° 0 mm 1 mps 704 mmHg 50%
    07:00 +21°C° 0 mm 1 mps 705 mmHg 47%
    08:00 +23°C° 0 mm 1 mps 706 mmHg 45%
    09:00 +26°C° 0 mm 1 mps 705 mmHg 39%
    10:00 +28°C° 0 mm 1 mps 705 mmHg 33%
    11:00 +30°C° 0 mm 1 mps 705 mmHg 28%
    12:00 +30°C° 0 mm 1 mps 704 mmHg 28%
    13:00 +30°C° 0 mm 1 mps 704 mmHg 29%
    14:00 +30°C° 0 mm 1 mps 703 mmHg 29%
    15:00 +27°C° 0 mm 1 mps 703 mmHg 43%
    16:00 +24°C° 0 mm 1 mps 703 mmHg 56%
    17:00 +21°C° 0 mm 1 mps 703 mmHg 69%
    18:00 +20°C° 0 mm 1 mps 703 mmHg 67%
    19:00 +20°C° 0 mm 1 mps 703 mmHg 64%
    20:00 +19°C° 0 mm 1 mps 704 mmHg 62%
    21:00 +19°C° 0 mm 1 mps 704 mmHg 60%
    22:00 +19°C° 0 mm 1 mps 704 mmHg 58%
    23:00 +19°C° 0 mm 1 mps 703 mmHg 57%

    18 November, Monday

    Time Temperature Precipitation Wind Pressure Humidity
    00:00 +18°C° 0 mm 1 mps 703 mmHg 54%
    01:00 +18°C° 0 mm 1 mps 703 mmHg 50%
    02:00 +18°C° 0 mm 1 mps 703 mmHg 47%
    03:00 +18°C° 0 mm 1 mps 703 mmHg 44%
    04:00 +18°C° 0 mm 1 mps 703 mmHg 42%
    05:00 +18°C° 0 mm 1 mps 703 mmHg 39%
    06:00 +19°C° 0 mm 1 mps 703 mmHg 39%
    07:00 +21°C° 0 mm 1 mps 704 mmHg 39%
    08:00 +21°C° 0 mm 0 mps 705 mmHg 39%
    09:00 +25°C° 0 mm 1 mps 705 mmHg 35%
    10:00 +27°C° 0 mm 1 mps 705 mmHg 32%
    11:00 +29°C° 0 mm 1 mps 705 mmHg 29%
    12:00 +29°C° 0 mm 1 mps 704 mmHg 32%
    13:00 +29°C° 0 mm 2 mps 704 mmHg 34%
    14:00 +28°C° 0 mm 2 mps 703 mmHg 37%
    15:00 +26°C° 0 mm 1 mps 703 mmHg 50%
    16:00 +23°C° 0 mm 1 mps 703 mmHg 62%
    17:00 +18°C° 0 mm 0 mps 703 mmHg 75%
    18:00 +17°C° 0 mm 0 mps 703 mmHg 74%
    19:00 +19°C° 0 mm 1 mps 704 mmHg 73%
    20:00 +18°C° 0 mm 1 mps 704 mmHg 73%
    21:00 +18°C° 0 mm 1 mps 704 mmHg 71%
    22:00 +18°C° 0 mm 1 mps 704 mmHg 69%
    23:00 +18°C° 0 mm 1 mps 704 mmHg 67%

    19 November, Tuesday

    Time Temperature Precipitation Wind Pressure Humidity
    00:00 +16°C° 0 mm 1 mps 704 mmHg 65%
    01:00 +16°C° 0 mm 1 mps 703 mmHg 64%
    02:00 +16°C° 0 mm 1 mps 703 mmHg 62%
    03:00 +16°C° 0 mm 1 mps 703 mmHg 60%
    04:00 +16°C° 0 mm 1 mps 703 mmHg 58%
    05:00 +15°C° 0 mm 1 mps 702 mmHg 56%
    06:00 +18°C° 0 mm 1 mps 703 mmHg 53%
    07:00 +18°C° 0 mm 0 mps 704 mmHg 50%
    08:00 +20°C° 0 mm 0 mps 704 mmHg 47%
    09:00 +22°C° 0 mm 0 mps 704 mmHg 44%
    10:00 +26°C° 0 mm 1 mps 704 mmHg 42%
    11:00 +27°C° 0 mm 1 mps 704 mmHg 39%
    12:00 +27°C° 0 mm 2 mps 703 mmHg 41%
    13:00 +27°C° 0 mm 2 mps 702 mmHg 43%
    14:00 +27°C° 0 mm 2 mps 702 mmHg 46%
    15:00 +24°C° 0 mm 1 mps 702 mmHg 58%
    16:00 +22°C° 0 mm 1 mps 702 mmHg 71%
    17:00 +19°C° 0 mm 1 mps 702 mmHg 83%
    18:00 +19°C° 0 mm 1 mps 702 mmHg 83%
    19:00 +18°C° 0 mm 1 mps 703 mmHg 83%
    20:00 +18°C° 0 mm 1 mps 703 mmHg 83%
    21:00 +16°C° 0 mm 1 mps 703 mmHg 82%
    22:00 +16°C° 0 mm 1 mps 703 mmHg 81%
    23:00 +16°C° 0 mm 1 mps 703 mmHg 79%
    Show more